Time,TemperatureF,DewpointF,PressureIn,WindDirection,WindDirectionDegrees,WindSpeedMPH,WindSpeedGustMPH,Humidity,HourlyPrecipIn,Conditions,Clouds,dailyrainin,SolarRadiationWatts/m^2,SoftwareType,DateUTC
2013-02-12 00:04:00,49.7,44.7,29.67,North,0,0.0,0.0,83,0.01,RA,,0.00,0.0,WeatherDisplay:10.37,2013-02-11 23:04:00,
2013-02-12 00:09:00,50.1,45.1,29.66,SSE,161,20.7,20.7,83,0.05,RA,,0.06,0.0,WeatherDisplay:10.37,2013-02-11 23:09:00,
2013-02-12 00:14:00,50.3,45.3,29.66,SW,235,14.0,14.0,83,0.05,RA,,0.06,0.0,WeatherDisplay:10.37,2013-02-11 23:14:00,
2013-02-12 00:19:00,50.7,45.4,29.66,SW,227,23.0,23.0,82,0.04,BKN,,0.06,0.0,WeatherDisplay:10.37,2013-02-11 23:19:00,
2013-02-12 00:24:00,50.9,45.3,29.66,SSW,212,20.7,20.7,81,0.04,BKN,,0.06,0.0,WeatherDisplay:10.37,2013-02-11 23:24:00,
2013-02-12 00:29:00,51.2,45.6,29.65,SW,233,16.0,16.0,81,0.04,BKN,,0.06,0.0,WeatherDisplay:10.37,2013-02-11 23:29:00,
2013-02-12 00:34:00,51.5,45.5,29.66,WSW,246,23.0,23.0,80,0.04,BKN,,0.06,0.0,WeatherDisplay:10.37,2013-02-11 23:34:00,
2013-02-12 00:39:00,51.6,46.0,29.66,SW,219,11.5,11.5,81,0.04,BKN,,0.06,0.0,WeatherDisplay:10.37,2013-02-11 23:39:00,
2013-02-12 00:44:00,51.5,45.9,29.65,South,173,11.5,11.5,81,0.05,RA,,0.07,0.0,WeatherDisplay:10.37,2013-02-11 23:44:00,
2013-02-12 00:49:00,51.5,45.9,29.65,SW,229,9.2,9.2,81,0.05,RA,,0.07,0.0,WeatherDisplay:10.37,2013-02-11 23:49:00,
2013-02-12 00:54:00,51.4,46.4,29.65,WSW,240,15.0,15.0,83,0.05,BKN,,0.07,0.0,WeatherDisplay:10.37,2013-02-11 23:54:00,
2013-02-12 00:59:00,51.4,46.7,29.65,South,170,9.2,9.2,84,0.05,BKN,,0.07,0.0,WeatherDisplay:10.37,2013-02-11 23:59:00,
2013-02-12 01:04:00,51.7,46.7,29.65,South,188,12.7,12.7,83,0.07,BKN,,0.07,0.0,WeatherDisplay:10.37,2013-02-12 00:04:00,
2013-02-12 01:09:00,51.9,46.6,29.65,SW,226,18.4,18.4,82,0.01,BKN,,0.07,0.0,WeatherDisplay:10.37,2013-02-12 00:09:00,
2013-02-12 01:14:00,52.1,46.8,29.64,SSW,207,19.6,19.6,82,0.01,BKN,,0.07,0.0,WeatherDisplay:10.37,2013-02-12 00:14:00,
2013-02-12 01:19:00,52.4,46.7,29.64,SW,219,15.0,15.0,81,0.01,BKN,,0.07,0.0,WeatherDisplay:10.37,2013-02-12 00:19:00,
2013-02-12 01:24:00,52.8,46.8,29.63,WSW,243,25.0,25.0,80,0.01,BKN,,0.07,0.0,WeatherDisplay:10.37,2013-02-12 00:24:00,
2013-02-12 01:29:00,52.9,46.6,29.63,SSW,213,13.8,13.8,79,0.01,BKN,,0.07,0.0,WeatherDisplay:10.37,2013-02-12 00:29:00,
2013-02-12 01:34:00,52.9,46.6,29.63,South,169,17.3,17.3,79,0.01,-RA,,0.07,0.0,WeatherDisplay:10.37,2013-02-12 00:34:00,
2013-02-12 01:39:00,52.8,46.5,29.63,South,182,16.0,16.0,79,0.02,-RA,,0.08,0.0,WeatherDisplay:10.37,2013-02-12 00:39:00,
2013-02-12 01:44:00,52.8,46.5,29.63,ENE,66,19.6,19.6,79,0.01,-RA,,0.08,0.0,WeatherDisplay:10.37,2013-02-12 00:44:00,
2013-02-12 01:49:00,52.9,45.9,29.62,WSW,241,19.6,19.6,77,0.01,-RA,,0.08,0.0,WeatherDisplay:10.37,2013-02-12 00:49:00,
2013-02-12 01:54:00,53.1,46.4,29.62,SSW,201,15.0,15.0,78,0.01,-RA,,0.08,0.0,WeatherDisplay:10.37,2013-02-12 00:54:00,
2013-02-12 01:59:00,53.1,46.4,29.62,West,271,19.6,19.6,78,0.01,-RA,,0.08,0.0,WeatherDisplay:10.37,2013-02-12 00:59:00,
2013-02-12 02:04:00,53.0,46.3,29.62,South,189,24.2,24.2,78,0.01,-RA,,0.08,0.0,WeatherDisplay:10.37,2013-02-12 01:04:00,
2013-02-12 02:09:00,53.0,46.3,29.61,SW,221,15.0,15.0,78,0.01,-RA,,0.08,0.0,WeatherDisplay:10.37,2013-02-12 01:09:00,
2013-02-12 02:14:00,52.9,46.6,29.61,West,275,16.0,16.0,79,0.02,-RA,,0.09,0.0,WeatherDisplay:10.37,2013-02-12 01:14:00,
2013-02-12 02:19:00,52.5,46.5,29.61,SSW,207,13.0,13.0,80,0.02,-RA,,0.09,0.0,WeatherDisplay:10.37,2013-02-12 01:19:00,
2013-02-12 02:24:00,52.5,46.5,29.63,WSW,238,26.5,26.5,80,0.03,-RA,,0.10,0.0,WeatherDisplay:10.37,2013-02-12 01:24:00,
2013-02-12 02:29:00,52.5,46.5,29.62,WSW,238,26.5,26.5,80,0.03,-RA,,0.10,0.0,WeatherDisplay:10.37,2013-02-12 01:29:00,
2013-02-12 02:34:00,52.5,46.5,29.61,North,11,26.5,0.0,80,0.03,-RA,,0.10,0.0,WeatherDisplay:10.37,2013-02-12 01:34:00,
2013-02-12 02:39:00,52.5,46.5,29.61,North,0,0.0,0.0,80,0.02,-RA,,0.10,0.0,WeatherDisplay:10.37,2013-02-12 01:39:00,
2013-02-12 02:44:00,52.5,46.5,29.61,North,0,0.0,0.0,80,0.02,-RA,,0.10,0.0,WeatherDisplay:10.37,2013-02-12 01:44:00,
2013-02-12 02:49:00,52.5,46.5,29.62,North,0,0.0,0.0,80,0.02,-RA,,0.10,0.0,WeatherDisplay:10.37,2013-02-12 01:49:00,
2013-02-12 02:54:00,52.5,46.5,29.61,North,0,0.0,0.0,80,0.02,-RA,,0.10,0.0,WeatherDisplay:10.37,2013-02-12 01:54:00,
2013-02-12 02:59:00,52.5,46.5,29.61,North,0,0.0,0.0,80,0.02,-RA,,0.10,0.0,WeatherDisplay:10.37,2013-02-12 01:59:00,
2013-02-12 03:04:00,52.5,46.5,29.61,North,0,0.0,0.0,80,0.02,-RA,,0.10,0.0,WeatherDisplay:10.37,2013-02-12 02:04:00,
2013-02-12 03:09:00,51.3,46.6,29.61,SW,232,20.7,20.7,84,0.02,-RA,,0.10,0.0,WeatherDisplay:10.37,2013-02-12 02:09:00,
2013-02-12 03:14:00,51.5,47.1,29.61,WSW,238,19.6,19.6,85,0.02,-RA,,0.10,0.0,WeatherDisplay:10.37,2013-02-12 02:14:00,
2013-02-12 03:19:00,51.8,47.4,29.61,SSW,193,19.6,19.6,85,0.01,-RA,,0.10,0.0,WeatherDisplay:10.37,2013-02-12 02:19:00,
2013-02-12 03:24:00,52.1,47.4,29.60,SW,229,21.9,21.9,84,0.00,-RA,,0.10,0.0,WeatherDisplay:10.37,2013-02-12 02:24:00,
2013-02-12 03:29:00,51.9,47.2,29.60,West,265,12.7,12.7,84,0.00,-RA,,0.10,0.0,WeatherDisplay:10.37,2013-02-12 02:29:00,
2013-02-12 03:34:00,52.0,47.0,29.60,SSE,167,13.8,13.8,83,0.00,-RA,,0.10,0.0,WeatherDisplay:10.37,2013-02-12 02:34:00,
2013-02-12 03:39:00,52.1,46.8,29.60,SW,236,15.0,15.0,82,0.00,-RA,,0.10,0.0,WeatherDisplay:10.37,2013-02-12 02:39:00,
2013-02-12 03:44:00,52.2,46.2,29.60,NNE,12,17.3,17.3,80,0.00,-RA,,0.10,0.0,WeatherDisplay:10.37,2013-02-12 02:44:00,
2013-02-12 03:49:00,52.6,46.3,29.60,WSW,238,15.0,15.0,79,0.00,-RA,,0.10,0.0,WeatherDisplay:10.37,2013-02-12 02:49:00,
2013-02-12 03:54:00,52.4,46.4,29.60,SSW,200,23.0,23.0,80,0.00,-RA,,0.10,0.0,WeatherDisplay:10.37,2013-02-12 02:54:00,
2013-02-12 03:59:00,52.1,46.4,29.60,SSW,198,23.0,23.0,81,0.00,-RA,,0.10,0.0,WeatherDisplay:10.37,2013-02-12 02:59:00,
2013-02-12 04:04:00,52.1,46.4,29.59,West,260,23.0,23.0,81,0.00,BKN,,0.10,0.0,WeatherDisplay:10.37,2013-02-12 03:04:00,
2013-02-12 04:09:00,52.2,46.2,29.59,SW,232,19.6,19.6,80,0.00,BKN,,0.10,0.0,WeatherDisplay:10.37,2013-02-12 03:09:00,
2013-02-12 04:14:00,52.4,46.4,29.59,WSW,254,19.6,19.6,80,0.00,BKN,,0.10,0.0,WeatherDisplay:10.37,2013-02-12 03:14:00,
2013-02-12 04:19:00,52.2,45.9,29.60,SW,214,31.1,31.1,79,0.00,BKN,,0.10,0.0,WeatherDisplay:10.37,2013-02-12 03:19:00,
2013-02-12 04:24:00,50.3,44.7,29.60,SW,236,19.6,19.6,81,0.01,RA,,0.11,0.0,WeatherDisplay:10.37,2013-02-12 03:24:00,
2013-02-12 04:29:00,50.4,44.8,29.60,SW,233,19.6,19.6,81,0.01,RA,,0.11,0.0,WeatherDisplay:10.37,2013-02-12 03:29:00,
2013-02-12 04:34:00,50.9,44.9,29.60,SW,223,18.4,18.4,80,0.01,BKN,,0.11,0.0,WeatherDisplay:10.37,2013-02-12 03:34:00,
2013-02-12 04:39:00,51.3,45.3,29.60,SW,232,19.0,19.0,80,0.01,BKN,,0.11,0.0,WeatherDisplay:10.37,2013-02-12 03:39:00,
2013-02-12 04:44:00,51.8,45.8,29.60,SW,229,12.0,28.0,80,0.00,BKN,,0.11,0.0,WeatherDisplay:10.37,2013-02-12 03:44:00,
2013-02-12 04:49:00,52.2,46.2,29.60,North,360,19.6,19.6,80,0.01,BKN,,0.11,0.0,WeatherDisplay:10.37,2013-02-12 03:49:00,
2013-02-12 04:54:00,52.1,46.1,29.59,SW,235,14.0,20.0,80,0.00,BKN,,0.11,0.0,WeatherDisplay:10.37,2013-02-12 03:54:00,
2013-02-12 04:59:00,52.3,46.3,29.59,SSW,211,21.9,21.9,80,0.01,BKN,,0.11,0.0,WeatherDisplay:10.37,2013-02-12 03:59:00,
2013-02-12 05:04:00,52.3,46.3,29.60,SW,227,15.0,23.0,80,0.00,BKN,,0.11,0.0,WeatherDisplay:10.37,2013-02-12 04:04:00,
2013-02-12 05:09:00,52.8,45.1,29.60,WSW,254,19.6,19.6,75,0.01,BKN,,0.11,0.0,WeatherDisplay:10.37,2013-02-12 04:09:00,
2013-02-12 05:14:00,53.0,45.3,29.60,WSW,248,13.0,23.0,75,0.00,BKN,,0.11,0.0,WeatherDisplay:10.37,2013-02-12 04:14:00,
2013-02-12 05:19:00,53.0,43.8,29.59,WSW,240,15.0,23.0,71,0.00,BKN,,0.11,0.0,WeatherDisplay:10.37,2013-02-12 04:19:00,
2013-02-12 05:24:00,53.1,43.6,29.60,SW,235,22.0,22.0,70,0.00,BKN,,0.11,0.0,WeatherDisplay:10.37,2013-02-12 04:24:00,
2013-02-12 05:29:00,53.0,43.5,29.60,SW,228,15.0,26.0,70,0.00,-RA,,0.11,0.0,WeatherDisplay:10.37,2013-02-12 04:29:00,
2013-02-12 05:34:00,52.7,43.2,29.60,West,261,19.6,19.6,70,0.00,-RA,,0.11,0.0,WeatherDisplay:10.37,2013-02-12 04:34:00,
2013-02-12 05:39:00,51.7,44.4,29.60,SW,229,15.0,15.0,76,0.00,-RA,,0.12,0.0,WeatherDisplay:10.37,2013-02-12 04:39:00,
2013-02-12 05:44:00,51.7,44.7,29.60,WSW,242,14.0,23.0,77,0.01,-RA,,0.12,0.0,WeatherDisplay:10.37,2013-02-12 04:44:00,
2013-02-12 05:49:00,51.7,44.0,29.60,WSW,239,21.9,21.9,75,0.01,-RA,,0.12,0.0,WeatherDisplay:10.37,2013-02-12 04:49:00,
2013-02-12 05:54:00,51.5,43.8,29.60,WSW,238,17.0,29.0,75,0.00,-RA,,0.12,0.0,WeatherDisplay:10.37,2013-02-12 04:54:00,
2013-02-12 05:59:00,51.2,43.2,29.60,WSW,256,19.6,19.6,74,0.01,-RA,,0.12,0.0,WeatherDisplay:10.37,2013-02-12 04:59:00,
2013-02-12 06:00:00,51.2,43.2,29.60,WSW,247,21.9,21.9,74,0.01,-RA,,0.12,0.0,WeatherDisplay:10.37,2013-02-12 05:00:00,
2013-02-12 06:05:00,50.9,43.3,29.61,South,189,20.7,20.7,75,0.01,-RA,,0.12,0.0,WeatherDisplay:10.37,2013-02-12 05:05:00,
2013-02-12 06:10:00,50.6,42.3,29.61,SW,228,18.4,18.4,73,0.02,-RA,,0.13,0.0,WeatherDisplay:10.37,2013-02-12 05:10:00,
2013-02-12 06:15:00,50.7,44.1,29.61,SW,225,18.4,18.4,78,0.02,-RA,,0.13,0.0,WeatherDisplay:10.37,2013-02-12 05:15:00,
2013-02-12 06:20:00,50.2,44.6,29.61,SSW,197,15.0,15.0,81,0.02,-RA,,0.13,0.0,WeatherDisplay:10.37,2013-02-12 05:20:00,
2013-02-12 06:25:00,49.7,44.7,29.61,SW,215,18.4,18.4,83,0.02,-RA,,0.13,0.0,WeatherDisplay:10.37,2013-02-12 05:25:00,
2013-02-12 06:30:00,49.3,44.4,29.61,SW,217,19.6,19.6,83,0.03,-RA,,0.14,0.0,WeatherDisplay:10.37,2013-02-12 05:30:00,
2013-02-12 06:35:00,49.3,44.0,29.61,West,267,16.1,16.1,82,0.03,-RA,,0.14,0.0,WeatherDisplay:10.37,2013-02-12 05:35:00,
2013-02-12 06:40:00,49.1,43.8,29.61,West,269,18.4,18.4,82,0.02,-RA,,0.14,0.0,WeatherDisplay:10.37,2013-02-12 05:40:00,
2013-02-12 06:45:00,49.0,43.7,29.61,SSW,197,14.0,14.0,82,0.02,-RA,,0.14,0.0,WeatherDisplay:10.37,2013-02-12 05:45:00,
2013-02-12 06:50:00,49.0,44.1,29.61,SSW,208,16.1,16.1,83,0.03,-RA,,0.15,0.0,WeatherDisplay:10.37,2013-02-12 05:50:00,
2013-02-12 06:55:00,49.0,43.7,29.62,SSE,147,16.1,16.1,82,0.03,-RA,,0.15,0.0,WeatherDisplay:10.37,2013-02-12 05:55:00,
2013-02-12 07:00:00,49.1,43.8,29.62,SW,234,11.0,11.0,82,0.03,-RA,,0.15,0.0,WeatherDisplay:10.37,2013-02-12 06:00:00,
2013-02-12 07:05:00,49.0,44.1,29.62,SW,231,16.0,16.0,83,0.04,-RA,,0.16,0.0,WeatherDisplay:10.37,2013-02-12 06:05:00,
2013-02-12 07:10:00,48.9,44.3,29.62,WSW,250,19.6,19.6,84,0.03,-RA,,0.16,0.0,WeatherDisplay:10.37,2013-02-12 06:10:00,
2013-02-12 07:15:00,48.8,44.2,29.62,SSE,160,8.1,8.1,84,0.04,-RA,,0.17,0.0,WeatherDisplay:10.37,2013-02-12 06:15:00,
2013-02-12 07:20:00,48.8,44.5,29.62,West,265,10.4,10.4,85,0.04,-RA,,0.17,0.0,WeatherDisplay:10.37,2013-02-12 06:20:00,
2013-02-12 07:25:00,48.8,44.2,29.62,SW,225,8.1,8.1,84,0.04,-RA,,0.17,0.0,WeatherDisplay:10.37,2013-02-12 06:25:00,
2013-02-12 07:30:00,48.9,44.0,29.62,WSW,240,6.9,6.9,83,0.03,-RA,,0.17,5.0,WeatherDisplay:10.37,2013-02-12 06:30:00,
2013-02-12 07:35:00,49.0,43.7,29.62,SSW,211,9.2,9.2,82,0.03,-RA,,0.17,5.0,WeatherDisplay:10.37,2013-02-12 06:35:00,
2013-02-12 07:40:00,49.4,44.1,29.62,SW,232,11.5,11.5,82,0.03,-RA,,0.17,5.0,WeatherDisplay:10.37,2013-02-12 06:40:00,
2013-02-12 07:45:00,49.5,44.2,29.62,SSW,213,13.8,13.8,82,0.03,-RA,,0.17,5.0,WeatherDisplay:10.37,2013-02-12 06:45:00,
2013-02-12 07:50:00,49.4,44.1,29.63,SSW,195,11.5,11.5,82,0.03,-RA,,0.18,7.0,WeatherDisplay:10.37,2013-02-12 06:50:00,
2013-02-12 07:55:00,49.4,44.5,29.63,South,175,11.5,11.5,83,0.03,RA,,0.18,7.0,WeatherDisplay:10.37,2013-02-12 06:55:00,
2013-02-12 08:00:00,49.1,44.5,29.63,SSW,202,11.5,11.5,84,0.03,BKN,,0.19,11.0,WeatherDisplay:10.37,2013-02-12 07:00:00,
2013-02-12 08:05:00,48.9,44.3,29.62,SSW,209,8.1,8.1,84,0.03,RA,,0.19,12.0,WeatherDisplay:10.37,2013-02-12 07:05:00,
2013-02-12 08:10:00,48.7,44.1,29.63,SSE,149,8.1,8.1,84,0.03,RA,,0.19,11.0,WeatherDisplay:10.37,2013-02-12 07:10:00,
2013-02-12 08:15:00,48.8,44.2,29.63,South,178,6.9,6.9,84,0.02,BKN,,0.19,7.0,WeatherDisplay:10.37,2013-02-12 07:15:00,
2013-02-12 08:20:00,48.9,44.0,29.63,South,175,6.9,7.4,83,0.02,RA,,0.20,5.0,WeatherDisplay:10.37,2013-02-12 07:20:00,
2013-02-12 08:25:00,48.9,44.3,29.64,SSW,203,25.3,25.3,84,0.03,RA,,0.20,5.0,WeatherDisplay:10.37,2013-02-12 07:25:00,
2013-02-12 08:30:00,48.1,44.4,29.64,WSW,257,20.7,20.7,87,0.04,RA,,0.22,11.0,WeatherDisplay:10.37,2013-02-12 07:30:00,
2013-02-12 08:35:00,47.9,44.5,29.64,WSW,254,10.4,10.4,88,0.05,RA,,0.22,16.0,WeatherDisplay:10.37,2013-02-12 07:35:00,
2013-02-12 08:40:00,47.9,44.5,29.64,SSW,213,8.1,8.1,88,0.06,RA,,0.24,23.0,WeatherDisplay:10.37,2013-02-12 07:40:00,
2013-02-12 08:45:00,47.9,44.8,29.64,WSW,243,8.1,8.1,89,0.06,RA,,0.24,26.0,WeatherDisplay:10.37,2013-02-12 07:45:00,
2013-02-12 08:50:00,47.9,44.8,29.64,South,183,4.0,4.0,89,0.06,RA,,0.24,21.0,WeatherDisplay:10.37,2013-02-12 07:50:00,
2013-02-12 08:55:00,47.7,44.6,29.65,South,187,6.9,6.9,89,0.07,RA,,0.25,21.0,WeatherDisplay:10.37,2013-02-12 07:55:00,
2013-02-12 09:00:00,47.4,44.3,29.65,SSW,208,7.0,7.0,89,0.08,RA,,0.26,28.0,WeatherDisplay:10.37,2013-02-12 08:00:00,
2013-02-12 09:05:00,47.5,44.4,29.65,SW,235,6.9,6.9,89,0.07,RA,,0.26,30.0,WeatherDisplay:10.37,2013-02-12 08:05:00,
2013-02-12 09:10:00,47.5,44.4,29.65,WSW,258,3.5,3.5,89,0.08,RA,,0.27,51.0,WeatherDisplay:10.37,2013-02-12 08:10:00,
2013-02-12 09:15:00,47.4,44.3,29.65,SSW,212,3.5,3.5,89,0.08,RA,,0.27,58.0,WeatherDisplay:10.37,2013-02-12 08:15:00,
2013-02-12 09:20:00,47.3,44.2,29.65,SSW,192,3.5,3.5,89,0.08,RA,,0.28,67.0,WeatherDisplay:10.37,2013-02-12 08:20:00,
2013-02-12 09:25:00,47.4,44.3,29.65,SSW,192,2.3,2.3,89,0.07,RA,,0.28,69.0,WeatherDisplay:10.37,2013-02-12 08:25:00,
2013-02-12 09:30:00,47.3,44.2,29.65,South,175,2.0,2.0,89,0.06,BKN,,0.28,60.0,WeatherDisplay:10.37,2013-02-12 08:30:00,
2013-02-12 09:35:00,47.2,43.8,29.66,South,184,4.6,4.6,88,0.06,BKN,,0.28,49.0,WeatherDisplay:10.37,2013-02-12 08:35:00,
2013-02-12 09:40:00,47.2,43.8,29.66,South,169,3.5,3.5,88,0.06,RA,,0.28,46.0,WeatherDisplay:10.37,2013-02-12 08:40:00,
2013-02-12 09:45:00,47.2,43.8,29.66,SSE,153,3.5,3.5,88,0.05,RA,,0.29,53.0,WeatherDisplay:10.37,2013-02-12 08:45:00,
2013-02-12 09:50:00,47.3,43.9,29.66,ESE,113,4.0,4.0,88,0.05,RA,,0.29,67.0,WeatherDisplay:10.37,2013-02-12 08:50:00,
2013-02-12 09:55:00,47.2,43.8,29.66,East,89,4.6,4.6,88,0.05,RA,,0.30,65.0,WeatherDisplay:10.37,2013-02-12 08:55:00,
2013-02-12 10:00:00,47.2,44.1,29.66,East,82,2.0,2.0,89,0.04,RA,,0.30,63.0,WeatherDisplay:10.37,2013-02-12 09:00:00,
2013-02-12 10:06:00,47.2,44.1,29.66,SE,143,1.1,1.1,89,0.04,BKN,,0.30,42.0,WeatherDisplay:10.37,2013-02-12 09:06:00,
2013-02-12 10:11:00,47.2,44.4,29.66,SW,219,0.0,0.0,90,0.04,RA,,0.31,35.0,WeatherDisplay:10.37,2013-02-12 09:11:00,
2013-02-12 10:16:00,47.3,44.5,29.66,South,175,1.1,1.1,90,0.05,RA,,0.31,46.0,WeatherDisplay:10.37,2013-02-12 09:16:00,
2013-02-12 10:21:00,47.4,44.6,29.66,SSW,206,1.1,0.0,90,0.04,RA,,0.31,51.0,WeatherDisplay:10.37,2013-02-12 09:21:00,
2013-02-12 10:26:00,47.4,44.6,29.66,WSW,246,2.3,2.3,90,0.05,RA,,0.32,42.0,WeatherDisplay:10.37,2013-02-12 09:26:00,
2013-02-12 10:31:00,47.3,44.5,29.66,North,360,1.1,1.1,90,0.06,RA,,0.33,33.0,WeatherDisplay:10.37,2013-02-12 09:31:00,
2013-02-12 10:36:00,47.1,44.3,29.66,East,88,1.1,1.1,90,0.06,RA,,0.34,30.0,WeatherDisplay:10.37,2013-02-12 09:36:00,
2013-02-12 10:41:00,47.0,44.5,29.67,ENE,71,3.5,3.5,91,0.06,RA,,0.35,21.0,WeatherDisplay:10.37,2013-02-12 09:41:00,
2013-02-12 10:46:00,46.9,44.4,29.67,East,80,5.8,5.8,91,0.07,RA,,0.36,16.0,WeatherDisplay:10.37,2013-02-12 09:46:00,
2013-02-12 10:51:00,46.6,43.8,29.68,SW,230,12.0,12.0,90,0.10,RA,,0.39,7.0,WeatherDisplay:10.37,2013-02-12 09:51:00,
2013-02-12 10:56:00,45.6,42.8,29.68,SE,138,2.0,2.0,90,0.13,RA,,0.43,26.0,WeatherDisplay:10.37,2013-02-12 09:56:00,
2013-02-12 11:01:00,45.4,42.9,29.68,West,279,4.0,4.0,91,0.15,RA,,0.45,37.0,WeatherDisplay:10.37,2013-02-12 10:01:00,
2013-02-12 11:06:00,45.5,43.0,29.68,WNW,301,6.9,6.9,91,0.16,RA,,0.46,44.0,WeatherDisplay:10.37,2013-02-12 10:06:00,
2013-02-12 11:11:00,45.4,42.6,29.68,WNW,298,5.8,5.8,90,0.16,RA,,0.46,56.0,WeatherDisplay:10.37,2013-02-12 10:11:00,
2013-02-12 11:16:00,45.1,42.3,29.68,NW,319,6.9,6.9,90,0.16,RA,,0.47,56.0,WeatherDisplay:10.37,2013-02-12 10:16:00,
2013-02-12 11:21:00,44.9,42.1,29.68,NNW,337,9.2,9.2,90,0.16,RA,,0.47,53.0,WeatherDisplay:10.37,2013-02-12 10:21:00,
2013-02-12 11:26:00,44.7,41.7,29.68,NNW,327,11.5,11.5,89,0.16,RA,,0.48,54.0,WeatherDisplay:10.37,2013-02-12 10:26:00,
2013-02-12 11:31:00,44.8,41.2,29.68,NNW,344,16.1,16.1,87,0.16,RA,,0.49,65.0,WeatherDisplay:10.37,2013-02-12 10:31:00,
2013-02-12 11:36:00,44.8,41.2,29.68,NNW,336,10.4,10.4,87,0.15,RA,,0.49,83.0,WeatherDisplay:10.37,2013-02-12 10:36:00,
2013-02-12 11:41:00,44.9,41.0,29.68,NW,312,9.2,9.2,86,0.15,RA,,0.50,90.0,WeatherDisplay:10.37,2013-02-12 10:41:00,
2013-02-12 11:46:00,44.9,40.7,29.68,NNW,331,6.9,6.9,85,0.14,RA,,0.50,97.0,WeatherDisplay:10.37,2013-02-12 10:46:00,
2013-02-12 11:51:00,45.1,40.9,29.68,NW,321,4.0,4.0,85,0.11,RA,,0.50,97.0,WeatherDisplay:10.37,2013-02-12 10:51:00,
2013-02-12 11:56:00,45.3,41.1,29.68,NW,326,3.5,3.5,85,0.08,RA,,0.51,98.0,WeatherDisplay:10.37,2013-02-12 10:56:00,
2013-02-12 12:01:00,45.5,41.6,29.68,NNE,24,1.1,1.1,86,0.07,RA,,0.52,91.0,WeatherDisplay:10.37,2013-02-12 11:01:00,
2013-02-12 12:06:00,45.7,41.8,29.68,SSW,196,2.3,2.3,86,0.06,RA,,0.52,93.0,WeatherDisplay:10.37,2013-02-12 11:06:00,
2013-02-12 12:11:00,45.8,42.2,29.68,East,92,5.0,5.0,87,0.06,BKN,,0.52,93.0,WeatherDisplay:10.37,2013-02-12 11:11:00,
2013-02-12 12:16:00,45.7,42.3,29.68,ESE,110,6.9,6.9,88,0.06,RA,,0.53,102.0,WeatherDisplay:10.37,2013-02-12 11:16:00,
2013-02-12 12:21:00,45.4,42.1,29.68,East,90,8.1,8.1,88,0.06,RA,,0.54,113.0,WeatherDisplay:10.37,2013-02-12 11:21:00,
2013-02-12 12:26:00,45.1,41.8,29.68,ENE,68,4.0,4.0,88,0.06,RA,,0.54,107.0,WeatherDisplay:10.37,2013-02-12 11:26:00,
2013-02-12 12:31:00,45.0,42.0,29.68,ENE,63,8.1,8.1,89,0.06,RA,,0.54,95.0,WeatherDisplay:10.37,2013-02-12 11:31:00,
2013-02-12 12:36:00,44.9,41.9,29.67,NE,52,5.8,5.8,89,0.06,RA,,0.54,97.0,WeatherDisplay:10.37,2013-02-12 11:36:00,
2013-02-12 12:41:00,44.7,41.7,29.68,East,87,9.2,9.2,89,0.06,RA,,0.55,79.0,WeatherDisplay:10.37,2013-02-12 11:41:00,
2013-02-12 12:46:00,44.6,41.8,29.68,ESE,110,10.4,10.4,90,0.05,RA,,0.55,67.0,WeatherDisplay:10.37,2013-02-12 11:46:00,
2013-02-12 12:51:00,44.4,41.7,29.68,ESE,113,9.2,9.2,90,0.05,-RA,,0.55,69.0,WeatherDisplay:10.37,2013-02-12 11:51:00,
2013-02-12 12:56:00,44.3,41.6,29.67,East,88,12.7,12.7,90,0.04,-RA,,0.55,74.0,WeatherDisplay:10.37,2013-02-12 11:56:00,
2013-02-12 13:01:00,44.3,41.6,29.67,East,92,10.4,10.4,90,0.03,-RA,,0.56,69.0,WeatherDisplay:10.37,2013-02-12 12:01:00,
2013-02-12 13:06:00,44.3,41.6,29.67,ESE,121,10.0,10.0,90,0.04,-RA,,0.56,70.0,WeatherDisplay:10.37,2013-02-12 12:06:00,
2013-02-12 13:11:00,44.1,41.4,29.67,East,90,14.0,14.0,90,0.04,-RA,,0.56,67.0,WeatherDisplay:10.37,2013-02-12 12:11:00,
2013-02-12 13:16:00,44.1,41.4,29.67,East,82,9.0,9.0,90,0.03,-RA,,0.56,62.0,WeatherDisplay:10.37,2013-02-12 12:16:00,
2013-02-12 13:21:00,44.1,41.4,29.67,ESE,119,8.1,8.1,90,0.03,-RA,,0.56,62.0,WeatherDisplay:10.37,2013-02-12 12:21:00,
2013-02-12 13:26:00,44.0,41.3,29.67,East,100,11.5,11.5,90,0.03,-RA,,0.57,67.0,WeatherDisplay:10.37,2013-02-12 12:26:00,
2013-02-12 13:31:00,43.8,41.1,29.67,ESE,110,11.5,11.5,90,0.02,-RA,,0.57,62.0,WeatherDisplay:10.37,2013-02-12 12:31:00,
2013-02-12 13:36:00,43.7,41.2,29.67,ENE,65,13.8,13.8,91,0.02,-RA,,0.57,63.0,WeatherDisplay:10.37,2013-02-12 12:36:00,
2013-02-12 13:41:00,43.9,41.4,29.67,ESE,115,8.1,8.1,91,0.02,-RA,,0.57,60.0,WeatherDisplay:10.37,2013-02-12 12:41:00,
2013-02-12 13:46:00,44.0,41.5,29.66,ESE,115,8.1,8.1,91,0.02,-RA,,0.57,58.0,WeatherDisplay:10.37,2013-02-12 12:46:00,
2013-02-12 13:51:00,44.0,41.5,29.66,NE,55,13.8,13.8,91,0.03,-RA,,0.58,54.0,WeatherDisplay:10.37,2013-02-12 12:51:00,
2013-02-12 13:56:00,44.0,41.5,29.66,East,80,9.2,9.2,91,0.03,-RA,,0.58,53.0,WeatherDisplay:10.37,2013-02-12 12:56:00,
2013-02-12 14:01:00,43.9,41.4,29.66,SSE,153,11.5,11.5,91,0.04,-RA,,0.59,56.0,WeatherDisplay:10.37,2013-02-12 13:01:00,
2013-02-12 14:06:00,43.9,41.7,29.66,ESE,107,13.8,13.8,92,0.03,-RA,,0.60,54.0,WeatherDisplay:10.37,2013-02-12 13:06:00,
2013-02-12 14:11:00,43.5,41.0,29.66,ESE,106,12.7,12.7,91,0.04,-RA,,0.60,51.0,WeatherDisplay:10.37,2013-02-12 13:11:00,
2013-02-12 14:16:00,43.1,40.9,29.66,ESE,110,10.4,10.4,92,0.04,-RA,,0.60,56.0,WeatherDisplay:10.37,2013-02-12 13:16:00,
2013-02-12 14:21:00,42.9,40.7,29.66,ESE,105,11.5,11.5,92,0.05,-RA,,0.61,56.0,WeatherDisplay:10.37,2013-02-12 13:21:00,
2013-02-12 14:26:00,42.9,40.7,29.66,East,92,10.4,10.4,92,0.04,-RA,,0.61,51.0,WeatherDisplay:10.37,2013-02-12 13:26:00,
2013-02-12 14:31:00,42.7,40.5,29.66,East,79,11.5,11.5,92,0.05,-RA,,0.61,60.0,WeatherDisplay:10.37,2013-02-12 13:31:00,
2013-02-12 14:36:00,42.7,40.5,29.66,East,96,11.5,11.5,92,0.05,-RA,,0.61,49.0,WeatherDisplay:10.37,2013-02-12 13:36:00,
2013-02-12 14:41:00,42.7,40.5,29.66,WSW,237,6.9,6.9,92,0.05,-RA,,0.62,56.0,WeatherDisplay:10.37,2013-02-12 13:41:00,
2013-02-12 14:46:00,42.7,40.5,29.66,North,5,12.7,12.7,92,0.05,-RA,,0.62,53.0,WeatherDisplay:10.37,2013-02-12 13:46:00,
2013-02-12 14:51:00,42.5,40.3,29.66,ESE,107,10.4,10.4,92,0.04,-RA,,0.62,60.0,WeatherDisplay:10.37,2013-02-12 13:51:00,
2013-02-12 14:56:00,42.3,40.1,29.66,ESE,116,9.2,9.2,92,0.05,-RA,,0.63,63.0,WeatherDisplay:10.37,2013-02-12 13:56:00,
2013-02-12 15:02:00,42.4,40.2,29.66,ESE,103,9.2,9.2,92,0.04,-RA,,0.63,51.0,WeatherDisplay:10.37,2013-02-12 14:02:00,
2013-02-12 15:07:00,42.3,40.1,29.66,SSE,166,10.4,10.4,92,0.03,-RA,,0.63,53.0,WeatherDisplay:10.37,2013-02-12 14:07:00,
2013-02-12 15:12:00,42.3,40.1,29.66,SE,128,8.1,8.1,92,0.03,-RA,,0.63,56.0,WeatherDisplay:10.37,2013-02-12 14:12:00,
2013-02-12 15:17:00,42.3,40.1,29.66,ENE,58,11.5,11.5,92,0.03,-RA,,0.63,49.0,WeatherDisplay:10.37,2013-02-12 14:17:00,
2013-02-12 15:22:00,42.2,40.0,29.67,East,92,11.5,11.5,92,0.02,-RA,,0.63,47.0,WeatherDisplay:10.37,2013-02-12 14:22:00,
2013-02-12 15:27:00,42.2,40.0,29.66,ENE,64,10.4,10.4,92,0.02,-RA,,0.64,44.0,WeatherDisplay:10.37,2013-02-12 14:27:00,
2013-02-12 15:32:00,42.2,40.0,29.66,SE,130,8.1,8.1,92,0.02,-RA,,0.64,40.0,WeatherDisplay:10.37,2013-02-12 14:32:00,
2013-02-12 15:37:00,42.2,39.8,29.66,WSW,254,10.4,10.4,91,0.02,-RA,,0.64,39.0,WeatherDisplay:10.37,2013-02-12 14:37:00,
2013-02-12 15:42:00,42.1,39.7,29.67,SSW,202,8.1,8.1,91,0.02,-RA,,0.64,37.0,WeatherDisplay:10.37,2013-02-12 14:42:00,
2013-02-12 15:47:00,42.1,39.7,29.66,SW,229,9.2,9.2,91,0.02,-RA,,0.65,33.0,WeatherDisplay:10.37,2013-02-12 14:47:00,
2013-02-12 15:52:00,42.0,39.6,29.67,South,179,11.5,11.5,91,0.02,-RA,,0.65,32.0,WeatherDisplay:10.37,2013-02-12 14:52:00,
2013-02-12 15:57:00,42.0,39.6,29.67,ESE,116,6.9,6.9,91,0.02,-RA,,0.65,26.0,WeatherDisplay:10.37,2013-02-12 14:57:00,
2013-02-12 16:02:00,41.8,39.4,29.66,SE,130,8.1,8.1,91,0.02,-RA,,0.65,26.0,WeatherDisplay:10.37,2013-02-12 15:02:00,
2013-02-12 16:07:00,41.8,39.4,29.66,NE,52,9.2,9.2,91,0.02,-RA,,0.65,25.0,WeatherDisplay:10.37,2013-02-12 15:07:00,
2013-02-12 16:12:00,41.7,39.3,29.66,WSW,238,6.0,6.0,91,0.02,-RA,,0.65,21.0,WeatherDisplay:10.37,2013-02-12 15:12:00,
2013-02-12 16:17:00,41.7,39.3,29.66,WSW,242,8.1,8.1,91,0.02,-RA,,0.65,21.0,WeatherDisplay:10.37,2013-02-12 15:17:00,
2013-02-12 16:22:00,41.7,39.3,29.66,NNW,344,6.9,6.9,91,0.02,-RA,,0.65,19.0,WeatherDisplay:10.37,2013-02-12 15:22:00,
2013-02-12 16:27:00,41.7,39.3,29.66,SW,216,6.9,6.9,91,0.02,-RA,,0.65,18.0,WeatherDisplay:10.37,2013-02-12 15:27:00,
2013-02-12 16:32:00,41.7,39.3,29.66,West,269,9.2,9.2,91,0.02,-RA,,0.66,14.0,WeatherDisplay:10.37,2013-02-12 15:32:00,
2013-02-12 16:37:00,41.6,39.2,29.66,East,84,5.8,5.8,91,0.02,-RA,,0.66,12.0,WeatherDisplay:10.37,2013-02-12 15:37:00,
2013-02-12 16:42:00,41.6,39.2,29.65,West,273,9.2,9.2,91,0.02,-DZ,,0.66,11.0,WeatherDisplay:10.37,2013-02-12 15:42:00,
2013-02-12 16:47:00,41.6,39.2,29.65,SW,222,5.0,5.0,91,0.02,-DZ,,0.66,9.0,WeatherDisplay:10.37,2013-02-12 15:47:00,
2013-02-12 16:52:00,41.6,39.2,29.65,WSW,250,6.9,6.9,91,0.02,-DZ,,0.66,9.0,WeatherDisplay:10.37,2013-02-12 15:52:00,
2013-02-12 16:57:00,41.6,39.2,29.66,SW,232,4.6,4.6,91,0.02,-DZ,,0.66,7.0,WeatherDisplay:10.37,2013-02-12 15:57:00,
2013-02-12 17:02:00,41.7,39.3,29.66,SSW,194,3.5,3.5,91,0.02,-DZ,,0.66,7.0,WeatherDisplay:10.37,2013-02-12 16:02:00,
2013-02-12 17:07:00,41.6,39.2,29.66,SSE,164,5.8,5.8,91,0.02,-DZ,,0.66,5.0,WeatherDisplay:10.37,2013-02-12 16:07:00,
2013-02-12 17:12:00,41.7,39.3,29.66,SSW,202,9.2,9.2,91,0.01,-DZ,,0.66,0.0,WeatherDisplay:10.37,2013-02-12 16:12:00,
2013-02-12 17:17:00,41.8,39.4,29.66,SE,142,6.9,6.9,91,0.01,-DZ,,0.66,0.0,WeatherDisplay:10.37,2013-02-12 16:17:00,
2013-02-12 17:22:00,41.8,39.4,29.66,NW,317,4.6,4.6,91,0.01,-DZ,,0.66,0.0,WeatherDisplay:10.37,2013-02-12 16:22:00,
2013-02-12 17:27:00,41.8,39.4,29.65,ESE,118,5.8,5.8,91,0.01,-DZ,,0.66,0.0,WeatherDisplay:10.37,2013-02-12 16:27:00,
2013-02-12 17:32:00,41.7,39.3,29.65,SE,137,8.1,8.1,91,0.00,-DZ,,0.66,0.0,WeatherDisplay:10.37,2013-02-12 16:32:00,
2013-02-12 17:37:00,41.7,39.3,29.65,ESE,109,4.6,4.6,91,0.00,-DZ,,0.66,0.0,WeatherDisplay:10.37,2013-02-12 16:37:00,
2013-02-12 17:42:00,41.7,39.3,29.65,East,100,6.9,6.9,91,0.00,-DZ,,0.66,0.0,WeatherDisplay:10.37,2013-02-12 16:42:00,
2013-02-12 17:47:00,41.7,39.3,29.65,SSW,213,7.0,7.0,91,0.00,-DZ,,0.66,0.0,WeatherDisplay:10.37,2013-02-12 16:47:00,
2013-02-12 17:52:00,41.8,39.4,29.65,SSW,206,6.0,6.0,91,0.00,-DZ,,0.66,0.0,WeatherDisplay:10.37,2013-02-12 16:52:00,
2013-02-12 17:57:00,41.8,39.1,29.65,SE,127,10.4,10.4,90,0.00,-DZ,,0.66,0.0,WeatherDisplay:10.37,2013-02-12 16:57:00,
2013-02-12 18:02:00,41.7,39.0,29.65,NNE,20,11.5,11.5,90,0.00,-DZ,,0.66,0.0,WeatherDisplay:10.37,2013-02-12 17:02:00,
2013-02-12 18:07:00,41.8,39.1,29.65,NNW,348,9.2,9.2,90,0.00,-DZ,,0.66,0.0,WeatherDisplay:10.37,2013-02-12 17:07:00,
2013-02-12 18:12:00,41.9,39.2,29.65,NNW,329,10.4,10.4,90,0.00,-DZ,,0.66,0.0,WeatherDisplay:10.37,2013-02-12 17:12:00,
2013-02-12 18:17:00,42.1,39.4,29.65,ESE,121,9.2,9.2,90,0.00,-DZ,,0.66,0.0,WeatherDisplay:10.37,2013-02-12 17:17:00,
2013-02-12 18:22:00,42.1,39.4,29.65,NNE,24,10.4,10.4,90,0.00,BKN,,0.66,0.0,WeatherDisplay:10.37,2013-02-12 17:22:00,
2013-02-12 18:27:00,42.2,39.5,29.65,NE,49,7.0,7.0,90,0.00,BKN,,0.66,0.0,WeatherDisplay:10.37,2013-02-12 17:27:00,
2013-02-12 18:32:00,42.1,39.1,29.65,NE,51,12.7,12.7,89,0.00,BKN,,0.66,0.0,WeatherDisplay:10.37,2013-02-12 17:32:00,
2013-02-12 18:37:00,42.2,39.2,29.65,NW,313,4.6,4.6,89,0.00,BKN,,0.66,0.0,WeatherDisplay:10.37,2013-02-12 17:37:00,
2013-02-12 18:42:00,42.2,39.2,29.65,SE,142,6.9,6.9,89,0.00,BKN,,0.66,0.0,WeatherDisplay:10.37,2013-02-12 17:42:00,
2013-02-12 18:47:00,42.1,39.1,29.64,SW,236,8.1,8.1,89,0.00,BKN,,0.66,0.0,WeatherDisplay:10.37,2013-02-12 17:47:00,
2013-02-12 18:52:00,42.2,39.2,29.64,SE,142,6.9,6.9,89,0.00,BKN,,0.66,0.0,WeatherDisplay:10.37,2013-02-12 17:52:00,
2013-02-12 18:57:00,42.3,39.3,29.65,SW,231,8.1,8.1,89,0.00,BKN,,0.66,0.0,WeatherDisplay:10.37,2013-02-12 17:57:00,
2013-02-12 19:02:00,42.3,39.0,29.65,SW,231,6.9,6.9,88,0.00,BKN,,0.66,0.0,WeatherDisplay:10.37,2013-02-12 18:02:00,
2013-02-12 19:07:00,42.3,39.0,29.65,North,11,7.0,7.0,88,0.00,BKN,,0.66,0.0,WeatherDisplay:10.37,2013-02-12 18:07:00,
2013-02-12 19:12:00,42.3,39.0,29.65,NNE,12,11.5,11.5,88,0.00,BKN,,0.66,0.0,WeatherDisplay:10.37,2013-02-12 18:12:00,
2013-02-12 19:17:00,42.4,38.8,29.65,ENE,57,9.0,9.0,87,0.00,BKN,,0.66,0.0,WeatherDisplay:10.37,2013-02-12 18:17:00,
2013-02-12 19:22:00,42.6,39.0,29.65,NE,48,4.6,4.6,87,0.00,BKN,,0.66,0.0,WeatherDisplay:10.37,2013-02-12 18:22:00,
2013-02-12 19:27:00,42.7,39.1,29.64,SW,236,4.0,4.0,87,0.00,BKN,,0.66,0.0,WeatherDisplay:10.37,2013-02-12 18:27:00,
2013-02-12 19:32:00,42.8,38.9,29.64,SE,135,5.8,5.8,86,0.00,BKN,,0.66,0.0,WeatherDisplay:10.37,2013-02-12 18:32:00,
2013-02-12 19:37:00,42.8,38.9,29.64,West,273,11.5,11.5,86,0.00,BKN,,0.66,0.0,WeatherDisplay:10.37,2013-02-12 18:37:00,
2013-02-12 19:42:00,42.9,39.0,29.64,NNE,15,3.5,3.5,86,0.00,BKN,,0.66,0.0,WeatherDisplay:10.37,2013-02-12 18:42:00,
2013-02-12 19:47:00,43.0,38.8,29.64,ENE,65,5.8,5.8,85,0.00,BKN,,0.66,0.0,WeatherDisplay:10.37,2013-02-12 18:47:00,
2013-02-12 19:52:00,43.0,38.8,29.64,ESE,117,9.2,9.2,85,0.00,BKN,,0.66,0.0,WeatherDisplay:10.37,2013-02-12 18:52:00,
2013-02-12 19:57:00,43.0,38.8,29.64,North,9,8.1,8.1,85,0.00,BKN,,0.66,0.0,WeatherDisplay:10.37,2013-02-12 18:57:00,
2013-02-12 20:02:00,43.0,38.8,29.64,ENE,67,8.1,8.1,85,0.00,BKN,,0.66,0.0,WeatherDisplay:10.37,2013-02-12 19:02:00,
2013-02-12 20:07:00,43.0,38.8,29.64,North,355,9.2,9.2,85,0.00,BKN,,0.66,0.0,WeatherDisplay:10.37,2013-02-12 19:07:00,
2013-02-12 20:12:00,43.0,38.8,29.64,South,169,5.8,5.8,85,0.00,BKN,,0.66,0.0,WeatherDisplay:10.37,2013-02-12 19:12:00,
2013-02-12 20:17:00,43.0,38.8,29.65,SE,131,4.0,4.0,85,0.00,BKN,,0.66,0.0,WeatherDisplay:10.37,2013-02-12 19:17:00,
2013-02-12 20:22:00,43.0,38.8,29.65,SE,142,3.5,3.5,85,0.00,BKN,,0.66,0.0,WeatherDisplay:10.37,2013-02-12 19:22:00,
2013-02-12 20:27:00,43.1,38.9,29.65,East,86,3.5,3.5,85,0.00,BKN,,0.66,0.0,WeatherDisplay:10.37,2013-02-12 19:27:00,
2013-02-12 20:32:00,43.0,38.8,29.65,West,272,2.3,2.3,85,0.00,BKN,,0.66,0.0,WeatherDisplay:10.37,2013-02-12 19:32:00,
2013-02-12 20:38:00,43.0,38.8,29.65,North,350,3.5,3.5,85,0.00,BKN,,0.66,0.0,WeatherDisplay:10.37,2013-02-12 19:38:00,
2013-02-12 20:43:00,43.0,38.8,29.65,East,92,5.0,5.0,85,0.00,BKN,,0.66,0.0,WeatherDisplay:10.37,2013-02-12 19:43:00,
2013-02-12 20:48:00,43.1,38.9,29.65,East,81,4.6,4.6,85,0.00,BKN,,0.66,0.0,WeatherDisplay:10.37,2013-02-12 19:48:00,
2013-02-12 20:53:00,43.1,38.9,29.65,SE,128,8.1,8.1,85,0.00,BKN,,0.66,0.0,WeatherDisplay:10.37,2013-02-12 19:53:00,
2013-02-12 20:58:00,43.2,39.0,29.65,East,97,3.5,3.5,85,0.00,BKN,,0.66,0.0,WeatherDisplay:10.37,2013-02-12 19:58:00,
2013-02-12 21:03:00,43.2,39.0,29.65,East,81,7.0,7.0,85,0.00,BKN,,0.66,0.0,WeatherDisplay:10.37,2013-02-12 20:03:00,
2013-02-12 21:08:00,43.3,38.8,29.65,North,355,5.8,5.8,84,0.00,BKN,,0.66,0.0,WeatherDisplay:10.37,2013-02-12 20:08:00,
2013-02-12 21:13:00,43.3,38.8,29.65,WSW,243,3.5,3.5,84,0.00,BKN,,0.66,0.0,WeatherDisplay:10.37,2013-02-12 20:13:00,
2013-02-12 21:18:00,43.4,38.9,29.65,East,86,3.5,3.5,84,0.00,BKN,,0.66,0.0,WeatherDisplay:10.37,2013-02-12 20:18:00,
2013-02-12 21:23:00,43.2,39.0,29.65,ENE,59,3.5,3.5,85,0.00,BKN,,0.66,0.0,WeatherDisplay:10.37,2013-02-12 20:23:00,
2013-02-12 21:28:00,43.2,39.0,29.65,WNW,282,3.5,3.5,85,0.00,BKN,,0.66,0.0,WeatherDisplay:10.37,2013-02-12 20:28:00,
2013-02-12 21:33:00,43.3,39.1,29.65,SE,130,5.8,5.8,85,0.00,BKN,,0.66,0.0,WeatherDisplay:10.37,2013-02-12 20:33:00,
2013-02-12 21:38:00,43.3,39.1,29.65,SSE,149,6.9,6.9,85,0.00,BKN,,0.66,0.0,WeatherDisplay:10.37,2013-02-12 20:38:00,
2013-02-12 21:43:00,43.3,39.1,29.65,SE,126,5.8,5.8,85,0.00,BKN,,0.66,0.0,WeatherDisplay:10.37,2013-02-12 20:43:00,
2013-02-12 21:48:00,43.3,39.1,29.65,ENE,63,6.9,6.9,85,0.00,BKN,,0.66,0.0,WeatherDisplay:10.37,2013-02-12 20:48:00,
2013-02-12 21:53:00,43.3,39.1,29.65,NE,53,4.6,4.6,85,0.00,BKN,,0.66,0.0,WeatherDisplay:10.37,2013-02-12 20:53:00,
2013-02-12 21:58:00,43.3,39.4,29.65,WNW,295,3.5,3.5,86,0.00,BKN,,0.66,0.0,WeatherDisplay:10.37,2013-02-12 20:58:00,
2013-02-12 22:03:00,43.3,39.4,29.65,North,5,3.5,3.5,86,0.00,BKN,,0.66,0.0,WeatherDisplay:10.37,2013-02-12 21:03:00,
2013-02-12 22:08:00,43.2,39.3,29.66,NE,34,4.0,4.0,86,0.00,BKN,,0.66,0.0,WeatherDisplay:10.37,2013-02-12 21:08:00,
2013-02-12 22:13:00,43.1,39.2,29.66,NNW,347,3.5,3.5,86,0.00,BKN,,0.66,0.0,WeatherDisplay:10.37,2013-02-12 21:13:00,
2013-02-12 22:18:00,43.0,39.4,29.66,NNW,344,5.8,5.8,87,0.00,BKN,,0.66,0.0,WeatherDisplay:10.37,2013-02-12 21:18:00,
2013-02-12 22:23:00,42.9,39.3,29.66,NNE,14,4.0,4.0,87,0.00,BKN,,0.66,0.0,WeatherDisplay:10.37,2013-02-12 21:23:00,
2013-02-12 22:28:00,43.0,39.4,29.66,NNE,19,4.0,4.0,87,0.00,BKN,,0.66,0.0,WeatherDisplay:10.37,2013-02-12 21:28:00,
2013-02-12 22:33:00,42.9,39.3,29.66,East,91,2.3,2.3,87,0.00,BKN,,0.66,0.0,WeatherDisplay:10.37,2013-02-12 21:33:00,
2013-02-12 22:38:00,43.0,39.7,29.65,NNE,33,2.3,2.3,88,0.00,BKN,,0.66,0.0,WeatherDisplay:10.37,2013-02-12 21:38:00,
2013-02-12 22:43:00,43.0,39.7,29.65,NNW,348,3.5,3.5,88,0.01,RA,,0.67,0.0,WeatherDisplay:10.37,2013-02-12 21:43:00,
2013-02-12 22:48:00,43.0,39.7,29.65,North,360,1.1,1.1,88,0.01,RA,,0.67,0.0,WeatherDisplay:10.37,2013-02-12 21:48:00,
2013-02-12 22:53:00,42.9,39.6,29.66,North,360,2.3,2.3,88,0.01,SCT,,0.67,0.0,WeatherDisplay:10.37,2013-02-12 21:53:00,
2013-02-12 22:58:00,42.9,39.6,29.65,NE,42,2.3,2.3,88,0.01,SCT,,0.67,0.0,WeatherDisplay:10.37,2013-02-12 21:58:00,
2013-02-12 23:03:00,42.8,39.8,29.65,NE,42,1.1,1.1,89,0.02,RA,,0.68,0.0,WeatherDisplay:10.37,2013-02-12 22:03:00,
2013-02-12 23:08:00,42.8,39.8,29.65,North,5,1.1,1.1,89,0.02,RA,,0.68,0.0,WeatherDisplay:10.37,2013-02-12 22:08:00,
2013-02-12 23:13:00,42.7,39.7,29.65,NE,44,1.1,1.1,89,0.02,SCT,,0.68,0.0,WeatherDisplay:10.37,2013-02-12 22:13:00,
2013-02-12 23:18:00,42.7,39.7,29.66,NE,44,0.0,0.0,89,0.02,SCT,,0.68,0.0,WeatherDisplay:10.37,2013-02-12 22:18:00,
2013-02-12 23:23:00,42.7,39.7,29.66,NW,322,3.0,3.0,89,0.02,SCT,,0.68,0.0,WeatherDisplay:10.37,2013-02-12 22:23:00,
2013-02-12 23:28:00,42.7,39.7,29.66,NW,321,3.5,3.5,89,0.02,SCT,,0.68,0.0,WeatherDisplay:10.37,2013-02-12 22:28:00,
2013-02-12 23:33:00,42.6,39.6,29.66,NNW,348,2.3,2.3,89,0.02,SCT,,0.68,0.0,WeatherDisplay:10.37,2013-02-12 22:33:00,
2013-02-12 23:38:00,42.7,40.0,29.66,NNW,341,5.0,5.0,90,0.02,SCT,,0.68,0.0,WeatherDisplay:10.37,2013-02-12 22:38:00,
2013-02-12 23:43:00,42.6,39.9,29.66,NW,320,3.5,3.5,90,0.02,RA,,0.69,0.0,WeatherDisplay:10.37,2013-02-12 22:43:00,
2013-02-12 23:48:00,42.6,39.9,29.66,WNW,302,3.5,3.5,90,0.02,RA,,0.69,0.0,WeatherDisplay:10.37,2013-02-12 22:48:00,
2013-02-12 23:53:00,42.7,39.7,29.66,NW,309,3.5,3.5,89,0.02,SCT,,0.69,0.0,WeatherDisplay:10.37,2013-02-12 22:53:00,
2013-02-12 23:58:00,42.8,40.1,29.66,NNE,22,2.0,2.0,90,0.02,SCT,,0.69,0.0,WeatherDisplay:10.37,2013-02-12 22:58:00,